Location: Arrakis Observatory
(44.1122°N, 95.7153°W)
Time: 07:50:24
(UTC-05:00)

Amateur Radio Satellites - All Passes

Search period start: 03 May 2015 07:20
Search period end: 04 May 2015 07:20
Location: Arrakis Observatory, 44.1122°N, 95.7153°W

Satellite Date Start Highest point End Downlink Frequencies (MHz)
Time Altitude Azimuth
CUTE-I 03 May 07:27:21 07:32:31 49° 99° (E) 07:37:42 437.470
Cosmos 2491 03 May 07:38:40 07:42:45 14° 51° (NE) 07:47:23 435.465 / 435.565
Cubesat XI-IV 03 May 07:39:32 07:44:50 64° 101° (ESE) 07:50:08 437.490
CUBESAT XI-V 03 May 07:42:24 07:46:34 32° 265° (W) 07:50:42 437.345
PRISM 03 May 07:50:23 07:54:17 38° 262° (W) 07:58:09 437.425
STRAND 1 03 May 07:56:06 08:01:04 53° 260° (W) 08:06:05 437.568
M-CUBED/EXP-1 PRIME 03 May 07:56:23 08:00:00 20° 263° (W) 08:03:26 437.505
PCSat 03 May 08:05:04 08:10:24 58° 305° (NW) 08:15:47 145.827
AO-7 03 May 08:25:03 08:29:48 16° 315° (NW) 08:34:13 29.400- 29.500
GOMX 1 03 May 08:29:25 08:31:33 13° 85° (E) 08:34:02 467.674
AUBIESAT-1 03 May 08:34:22 08:34:43 10° 269° (W) 08:34:45 437.475
O/OREOS (USA 219) 03 May 08:41:11 08:43:35 14° 260° (W) 08:45:45 437.305
YUBILEINY 03 May 08:47:38 08:50:04 12° 73° (ENE) 08:53:13 435.215
HO-68 03 May 08:51:46 08:56:32 19° 88° (E) 09:01:36 435.675
BEESAT 3 03 May 09:06:02 09:09:30 26° 44° (NE) 09:12:59 437.485
CUTE-I 03 May 09:08:04 09:12:21 25° 296° (WNW) 09:16:31 437.470
COMPASS 1 03 May 09:12:48 09:13:55 11° 87° (E) 09:15:17 437.405
BEESAT 2 03 May 09:18:30 09:22:06 28° 44° (NE) 09:25:42 435.950
Cubesat XI-IV 03 May 09:20:41 09:24:30 20° 299° (WNW) 09:28:09 437.490
BRITE-PL 03 May 09:23:04 09:28:21 57° 99° (E) 09:33:54 437.365/2234.400
Cosmos 2491 03 May 09:33:09 09:41:57 64° 77° (ENE) 09:50:43 435.465 / 435.565
AIST 2 03 May 09:34:20 09:37:10 17° 37° (NE) 09:40:03 435.215
CINEMA 3 03 May 09:42:48 09:46:31 21° 90° (E) 09:50:21 145.822/145.860
ANTELSAT 03 May 09:43:41 09:46:01 14° 61° (ENE) 09:48:34 437.575/2403.000
AAUSAT CUBESAT 2 03 May 09:46:22 09:49:39 23° 93° (E) 09:53:00 437.432
SEEDS 03 May 09:49:41 09:53:33 35° 96° (E) 09:57:26 437.485
PCSat 03 May 09:52:17 09:55:06 14° 328° (NNW) 09:57:45 145.827
ISS 03 May 09:57:32 10:00:43 57° 144° (SE) 10:03:56 145.825
SO-50 03 May 09:59:59 10:04:17 39° 117° (ESE) 10:08:46 436.795
DOVE 4 03 May 10:00:26 10:05:38 58° 99° (E) 10:10:53 437.250
DELFI C3 03 May 10:02:59 10:04:10 11° 87° (E) 10:05:35 145.870
GOMX 1 03 May 10:05:03 10:10:25 90° 87° (E) 10:15:57 467.674
CANX-2 03 May 10:12:28 10:16:47 85° 103° (ESE) 10:21:01 2200.000
QB50P2 03 May 10:12:33 10:14:06 12° 62° (ENE) 10:15:52 145.880/145.840
FUNcube-1 03 May 10:16:49 10:19:09 14° 87° (E) 10:21:41 145.935
CUTE 1.7 + AOD 2 03 May 10:20:16 10:24:34 87° 284° (WNW) 10:28:49 437.475
CUBEBUG 2 03 May 10:21:13 10:25:08 25° 92° (E) 10:29:04 437.445
NANOSAT C BR1 03 May 10:23:37 10:25:58 15° 64° (ENE) 10:28:30 145.865
Oscar 11 03 May 10:23:54 10:27:38 28° 94° (E) 10:31:22 145.826/435.025
TIGRISAT 03 May 10:27:30 10:31:39 34° 69° (ENE) 10:35:55 435.000
UWE-3 03 May 10:29:15 10:33:03 25° 92° (E) 10:36:53 435.000/436.395/437.385
POPSAT HIP 1 03 May 10:30:22 10:33:09 18° 65° (ENE) 10:36:04 437.405
UNISAT 6 03 May 10:35:32 10:39:52 42° 71° (ENE) 10:44:20 437.425
YUBILEINY 03 May 10:36:39 10:45:18 64° 93° (E) 10:53:59 435.215
AIST 1 03 May 10:36:41 10:39:55 21° 70° (ENE) 10:43:14
HO-68 03 May 10:37:59 10:45:13 82° 288° (WNW) 10:52:22 435.675
BEESAT 3 03 May 10:43:48 10:47:37 37° 243° (WSW) 10:51:21 437.485
ZACube-1 03 May 10:44:38 10:48:34 28° 94° (E) 10:52:29 437.345
COMPASS 1 03 May 10:45:59 10:50:10 67° 285° (WNW) 10:54:17 437.405
DUCHIFAT 1 03 May 10:53:20 10:56:57 29° 69° (ENE) 11:00:39 145.980
BEESAT 2 03 May 10:56:30 11:00:16 34° 243° (WSW) 11:03:55 435.950
BRITE-PL 03 May 11:02:24 11:06:32 23° 295° (WNW) 11:10:42 437.365/2234.400
POLYITAN 1 03 May 11:02:49 11:06:44 38° 70° (ENE) 11:10:44 437.675
HUMSAT D 03 May 11:06:18 11:09:36 22° 92° (E) 11:12:58 437.325/437.525
AIST 2 03 May 11:12:02 11:16:17 75° 238° (WSW) 11:20:26 435.215
DX 1 03 May 11:12:09 11:15:56 28° 95° (E) 11:19:46 434.975-435.025
QB50P1 03 May 11:16:04 11:20:10 51° 73° (ENE) 11:24:19 145.935-145.965
ANTELSAT 03 May 11:17:37 11:22:14 75° 257° (WSW) 11:26:59 437.575/2403.000
VELOX 1 03 May 11:18:02 11:20:46 16° 90° (E) 11:23:42 145.980
CINEMA 3 03 May 11:19:08 11:24:01 50° 288° (WNW) 11:28:51 145.822/145.860
AAUSAT CUBESAT 2 03 May 11:21:36 11:25:22 32° 290° (WNW) 11:29:02 437.432
SEEDS 03 May 11:25:53 11:29:12 22° 293° (WNW) 11:32:24 437.485
Cosmos 2491 03 May 11:30:53 11:38:16 30° 277° (W) 11:45:25 435.465 / 435.565
ISS 03 May 11:34:18 11:37:14 30° 343° (NNW) 11:40:11 145.825
DELFI C3 03 May 11:35:48 11:39:48 61° 286° (WNW) 11:43:45 145.870
AISAT 03 May 11:38:36 11:42:26 27° 95° (E) 11:46:18 437.250
DOVE 4 03 May 11:39:03 11:43:01 21° 296° (WNW) 11:46:52 437.250
Cosmos 2504 03 May 11:39:03 11:43:36 16° 78° (ENE) 11:48:37 435.465 / 435.565
SO-50 03 May 11:40:38 11:44:54 32° 316° (NW) 11:49:17 436.795
UKube-1 03 May 11:42:32 11:46:49 56° 101° (E) 11:51:05 .
BUGSAT 1 03 May 11:42:47 11:46:47 70° 75° (ENE) 11:50:50 437.445
50 SAT 03 May 11:44:07 11:47:44 32° 96° (E) 11:51:20 437.505
GOMX 1 03 May 11:44:57 11:47:56 15° 299° (WNW) 11:50:43 467.674
QB50P2 03 May 11:45:14 11:49:28 74° 258° (WSW) 11:53:45 145.880/145.840
CANX-2 03 May 11:51:07 11:52:06 11° 299° (WNW) 11:52:52 2200.000
FUNcube-1 03 May 11:51:26 11:56:00 63° 286° (WNW) 12:00:28 145.935
NANOSAT C BR1 03 May 11:57:16 12:01:25 56° 260° (W) 12:05:37 145.865
CUBEBUG 2 03 May 11:57:31 12:01:57 38° 290° (WNW) 12:06:16 437.445
Oscar 11 03 May 12:00:01 12:03:48 29° 291° (WNW) 12:07:28 145.826/435.025
TIGRISAT 03 May 12:04:30 12:08:27 27° 267° (W) 12:12:23 435.000
POPSAT HIP 1 03 May 12:04:38 12:08:43 46° 261° (W) 12:12:50 437.405
UWE-3 03 May 12:05:22 12:09:42 37° 290° (WNW) 12:13:57 435.000/436.395/437.385
UNISAT 6 03 May 12:13:14 12:16:52 22° 269° (W) 12:20:27 437.425
AIST 1 03 May 12:13:48 12:17:43 35° 268° (W) 12:21:36
ZACube-1 03 May 12:20:50 12:24:56 32° 291° (WNW) 12:28:57 437.345
Oscar 19 03 May 12:25:11 12:27:39 14° 59° (ENE) 12:30:22 437.125/150
HO-68 03 May 12:27:15 12:32:00 19° 307° (NW) 12:36:29 435.675
DUCHIFAT 1 03 May 12:29:11 12:32:47 26° 266° (W) 12:36:21 145.980
CUBEBUG 1 03 May 12:33:12 12:37:29 50° 99° (E) 12:41:46 437.445
YUBILEINY 03 May 12:35:09 12:42:51 31° 295° (WNW) 12:50:20 435.215
POLYITAN 1 03 May 12:39:36 12:42:50 20° 268° (W) 12:45:59 437.675
HUMSAT D 03 May 12:41:30 12:45:30 36° 290° (WNW) 12:49:25 437.325/437.525
ESTCUBE 1 03 May 12:47:27 12:51:58 80° 103° (ESE) 12:56:27 437.505/2401.250
DX 1 03 May 12:48:21 12:52:09 29° 292° (WNW) 12:55:54 434.975-435.025
VELOX 1 03 May 12:53:22 12:57:42 51° 288° (WNW) 13:02:02 145.980
QB50P1 03 May 12:53:54 12:56:25 15° 271° (W) 12:58:47 145.935-145.965
VERMONT LUNAR 03 May 13:06:25 13:07:34 12° 151° (SSE) 13:08:48 437.305
RS-15 03 May 13:07:11 13:16:59 43° 110° (ESE) 13:27:11 29.354- 29.394
ISS 03 May 13:11:40 13:14:15 21° 3° (N) 13:16:50 145.825
AISAT 03 May 13:15:03 13:19:02 31° 292° (WNW) 13:22:56 437.250
50 SAT 03 May 13:19:12 13:22:23 22° 293° (WNW) 13:25:25 437.505
ITAMSAT 1 03 May 13:19:13 13:21:40 14° 59° (ENE) 13:24:20 435.822/435.867
UKube-1 03 May 13:19:51 13:22:34 16° 297° (WNW) 13:25:07 .
SPROUT 03 May 13:19:56 13:24:06 44° 98° (E) 13:28:16 437.525
Cosmos 2504 03 May 13:27:03 13:35:53 77° 95° (E) 13:44:27 435.465 / 435.565
BEESAT 03 May 13:44:18 13:44:27 10° 85° (E) 13:44:56 436.000
SWISSCUBE 03 May 13:46:50 13:48:37 12° 87° (E) 13:50:40 437.505
TISAT 1 03 May 13:51:32 13:55:49 75° 102° (ESE) 14:00:05 437.305
AO-7 03 May 13:51:55 13:55:13 13° 42° (NE) 13:58:56 29.400- 29.500
Oscar 19 03 May 14:01:10 14:06:21 89° 268° (W) 14:11:36 437.125/150
CUBEBUG 1 03 May 14:10:31 14:13:31 18° 296° (WNW) 14:16:24 437.445
ESTCUBE 1 03 May 14:26:21 14:28:17 12° 299° (WNW) 14:30:00 437.505/2401.250
Gurwin Techsat 1B 03 May 14:36:58 14:42:08 56° 72° (ENE) 14:47:21 435.225
VERMONT LUNAR 03 May 14:41:23 14:44:24 32° 166° (SSE) 14:47:28 437.305
ISS 03 May 14:48:04 14:51:11 40° 22° (NNE) 14:54:17 145.825
ITUPSAT 1 03 May 14:53:16 14:57:55 51° 100° (E) 15:02:33 437.325
ITAMSAT 1 03 May 14:55:20 15:00:30 89° 246° (WSW) 15:05:44 435.822/435.867
SPROUT 03 May 14:56:46 14:59:55 19° 295° (WNW) 15:02:57 437.525
PHONESAT 2.4 03 May 15:02:22 15:05:15 24° 159° (SSE) 15:08:11 2401.200-2431.200
GONETS M04 03 May 15:03:46 15:09:51 23° 80° (E) 15:16:21
PCSat 03 May 15:08:28 15:13:08 28° 45° (NE) 15:17:49 145.827
RS-15 03 May 15:18:14 15:29:02 62° 314° (NW) 15:40:09 29.354- 29.394
BEESAT 03 May 15:18:18 15:23:06 89° 285° (WNW) 15:27:52 436.000
SWISSCUBE 03 May 15:22:22 15:27:08 76° 285° (WNW) 15:31:53 437.505
Cosmos 2504 03 May 15:23:04 15:30:17 26° 297° (WNW) 15:37:02 435.465 / 435.565
JAS-2 03 May 15:25:16 15:32:03 36° 65° (ENE) 15:38:30 435.910
TISAT 1 03 May 15:29:19 15:31:05 12° 298° (WNW) 15:32:38 437.305
AO-7 03 May 15:38:25 15:46:16 51° 63° (ENE) 15:54:13 29.400- 29.500
Oscar 19 03 May 15:44:52 15:46:35 11° 275° (W) 15:47:58 437.125/150
HORYU 2 03 May 15:50:57 15:55:22 56° 72° (ENE) 15:59:48 437.375
KKS-1 03 May 16:04:31 16:08:57 53° 100° (E) 16:13:21 437.445
DANDE 03 May 16:07:26 16:10:14 17° 81° (E) 16:13:44 436.750
CUSAT 1 03 May 16:10:50 16:14:41 27° 85° (E) 16:19:38 437.405
VERMONT LUNAR 03 May 16:18:18 16:21:32 44° 183° (S) 16:24:46 437.305
Gurwin Techsat 1B 03 May 16:18:36 16:22:32 20° 270° (W) 16:26:20 435.225
ISS 03 May 16:24:31 16:27:30 33° 220° (SW) 16:30:28 145.825
ITUPSAT 1 03 May 16:32:00 16:35:29 20° 296° (WNW) 16:38:52 437.325
STARS 03 May 16:37:33 16:42:02 76° 103° (ESE) 16:46:29 437.465
ITAMSAT 1 03 May 16:39:13 16:40:53 11° 275° (W) 16:42:14 435.822/435.867
PHONESAT 2.4 03 May 16:39:40 16:43:05 45° 175° (S) 16:46:31 2401.200-2431.200
SO-50 03 May 16:50:27 16:52:55 14° 29° (NNE) 16:55:30 436.795
PCSat 03 May 16:51:35 16:56:51 52° 245° (WSW) 17:02:04 145.827
GONETS M04 03 May 16:56:58 17:05:47 81° 280° (W) 17:14:41
BEESAT 03 May 16:58:25 17:00:18 12° 301° (WNW) 17:01:58 436.000
SWISSCUBE 03 May 17:03:38 17:04:15 10° 302° (WNW) 17:04:37 437.505
JAS-2 03 May 17:09:19 17:16:55 53° 262° (W) 17:23:59 435.910
CUTE-I 03 May 17:14:02 17:16:40 14° 58° (ENE) 17:19:32 437.470
Cosmos 2499 03 May 17:22:34 17:29:50 31° 85° (E) 17:37:00 435.465 / 435.565
Cubesat XI-IV 03 May 17:25:29 17:28:55 18° 61° (ENE) 17:32:31 437.490
HORYU 2 03 May 17:29:40 17:32:25 15° 270° (W) 17:35:01 437.375
AO-7 03 May 17:31:37 17:39:18 40° 263° (W) 17:46:55 29.400- 29.500
RS-15 03 May 17:35:06 17:44:20 29° 345° (NNW) 17:53:47 29.354- 29.394
MOZHAYETS 4 03 May 17:35:30 17:39:43 36° 96° (E) 17:43:56
KKS-1 03 May 17:42:10 17:45:13 18° 296° (WNW) 17:48:07 437.445
DANDE 03 May 17:48:28 17:52:39 51° 288° (WNW) 17:58:19 436.750
CUSAT 1 03 May 17:52:43 17:57:07 38° 293° (WNW) 18:02:49 437.405
VERMONT LUNAR 03 May 17:55:46 17:58:36 25° 199° (SSW) 18:01:25 437.305
STARS 03 May 18:15:50 18:17:57 13° 299° (WNW) 18:19:52 437.465
PHONESAT 2.4 03 May 18:17:41 18:21:01 37° 192° (SSW) 18:24:22 2401.200-2431.200
SO-50 03 May 18:29:43 18:34:36 55° 50° (NE) 18:39:27 436.795
CUTE-I 03 May 18:50:46 18:56:05 89° 246° (WSW) 19:01:27 437.470
GONETS M04 03 May 18:58:19 19:04:23 19° 304° (NW) 19:10:04
Cubesat XI-IV 03 May 19:03:14 19:08:32 69° 258° (WSW) 19:13:52 437.490
MOZHAYETS 4 03 May 19:13:03 19:16:48 25° 293° (WNW) 19:20:27
Cosmos 2499 03 May 19:13:53 19:22:36 62° 283° (WNW) 19:30:52 435.465 / 435.565
HO-68 03 May 19:23:04 19:27:47 20° 54° (NE) 19:32:44 435.675
PRISM 03 May 19:31:28 19:34:49 24° 94° (E) 19:38:13 437.425
M-CUBED/EXP-1 PRIME 03 May 19:36:13 19:39:31 26° 99° (E) 19:42:39 437.505
CUBESAT XI-V 03 May 19:36:55 19:41:28 54° 99° (E) 19:46:01 437.345
GOMX 1 03 May 19:39:55 19:41:59 13° 60° (ENE) 19:44:19 467.674
RS-15 03 May 19:51:48 20:01:20 30° 19° (NNE) 20:11:21 29.354- 29.394
PHONESAT 2.4 03 May 19:56:36 19:58:43 15° 208° (SSW) 20:00:46 2401.200-2431.200
STRAND 1 03 May 20:04:58 20:09:53 46° 99° (E) 20:14:48 437.568
COMPASS 1 03 May 20:06:28 20:07:26 11° 62° (ENE) 20:08:37 437.405
AUBIESAT-1 03 May 20:09:37 20:13:28 57° 106° (ESE) 20:16:59 437.475
SO-50 03 May 20:11:00 20:14:50 22° 248° (WSW) 20:18:30 436.795
CUTE-I 03 May 20:35:06 20:37:04 12° 275° (W) 20:38:41 437.470
BRITE-PL 03 May 20:36:05 20:40:20 69° 74° (ENE) 20:44:54 437.365/2234.400
AAUSAT CUBESAT 2 03 May 20:39:01 20:42:05 20° 67° (ENE) 20:45:15 437.432
SEEDS 03 May 20:43:14 20:46:59 31° 70° (ENE) 20:50:47 437.485
YUBILEINY 03 May 20:45:17 20:52:57 34° 67° (ENE) 21:00:43 435.215
Cosmos 2491 03 May 20:45:33 20:48:58 13° 75° (ENE) 20:53:00 435.465 / 435.565
CINEMA 3 03 May 20:46:21 20:49:46 22° 65° (ENE) 20:53:25 145.822/145.860
CANX-2 03 May 21:06:32 21:10:50 73° 75° (ENE) 21:15:09 2200.000
PRISM 03 May 21:06:43 21:10:19 29° 291° (WNW) 21:13:51 437.425
HO-68 03 May 21:07:26 21:14:38 86° 74° (ENE) 21:21:54 435.675
DOVE 4 03 May 21:07:42 21:12:05 63° 74° (ENE) 21:16:49 437.250
M-CUBED/EXP-1 PRIME 03 May 21:11:05 21:14:21 25° 299° (WNW) 21:17:22 437.505
Cosmos 2499 03 May 21:13:37 21:17:48 14° 307° (NW) 21:21:22 435.465 / 435.565
O/OREOS (USA 219) 03 May 21:13:41 21:18:07 54° 109° (ESE) 21:22:36 437.305
CUTE 1.7 + AOD 2 03 May 21:14:14 21:18:33 80° 74° (ENE) 21:22:53 437.475
FUNcube-1 03 May 21:14:30 21:16:52 15° 62° (ENE) 21:19:26 145.935
GOMX 1 03 May 21:15:07 21:19:29 74° 259° (WSW) 21:24:11 467.674
CUBESAT XI-V 03 May 21:15:23 21:18:33 18° 296° (WNW) 21:21:34 437.345
Oscar 11 03 May 21:20:14 21:23:53 27° 68° (ENE) 21:27:36 145.826/435.025
CUBEBUG 2 03 May 21:21:03 21:24:44 25° 67° (ENE) 21:28:36 437.445
UWE-3 03 May 21:28:00 21:31:36 24° 66° (ENE) 21:35:21 435.000/436.395/437.385
COMPASS 1 03 May 21:38:17 21:42:33 83° 257° (WSW) 21:46:49 437.405
ZACube-1 03 May 21:42:08 21:45:52 27° 67° (ENE) 21:49:43 437.345
STRAND 1 03 May 21:44:44 21:48:51 24° 296° (WNW) 21:52:52 437.568
AUBIESAT-1 03 May 21:45:51 21:47:46 13° 304° (NW) 21:49:30 437.475
HUMSAT D 03 May 21:59:55 22:02:59 20° 66° (ENE) 22:06:12 437.325/437.525
RS-15 03 May 22:05:01 22:16:28 67° 48° (NE) 22:28:27 29.354- 29.394
DX 1 03 May 22:09:17 22:13:03 30° 68° (ENE) 22:16:54 434.975-435.025
AAUSAT CUBESAT 2 03 May 22:13:31 22:17:29 39° 263° (W) 22:21:27 437.432
ESTCUBE 1 03 May 22:15:49 22:16:39 11° 60° (ENE) 22:17:44 437.505/2401.250
VELOX 1 03 May 22:17:23 22:20:23 19° 64° (ENE) 22:23:31 145.980
BRITE-PL 03 May 22:18:03 22:19:38 11° 275° (W) 22:20:59 437.365/2234.400
SEEDS 03 May 22:19:15 22:22:49 25° 267° (W) 22:26:20 437.485
CINEMA 3 03 May 22:22:21 22:26:41 44° 263° (W) 22:31:14 145.822/145.860
DELFI C3 03 May 22:24:21 22:28:26 84° 260° (W) 22:32:32 145.870
50 SAT 03 May 22:31:00 22:34:14 24° 68° (ENE) 22:37:33 437.505
Cosmos 2491 03 May 22:35:42 22:44:19 70° 94° (E) 22:53:05 435.465 / 435.565
AISAT 03 May 22:38:00 22:41:49 30° 68° (ENE) 22:45:43 437.250
UKube-1 03 May 22:38:41 22:42:55 58° 73° (ENE) 22:47:11 .
YUBILEINY 03 May 22:41:47 22:50:18 58° 269° (W) 22:58:42 435.215
CANX-2 03 May 22:46:07 22:47:22 11° 274° (W) 22:48:22 2200.000
DOVE 4 03 May 22:48:05 22:50:30 14° 274° (W) 22:52:46 437.250
FUNcube-1 03 May 22:48:16 22:52:41 67° 259° (W) 22:57:15 145.935
O/OREOS (USA 219) 03 May 22:54:36 22:57:56 19° 309° (NW) 23:01:09 437.305
Oscar 11 03 May 22:56:08 23:00:00 30° 265° (W) 23:03:51 145.826/435.025
CUBEBUG 2 03 May 22:57:06 23:01:16 36° 264° (W) 23:05:34 437.445
HO-68 03 May 22:58:30 23:03:24 18° 273° (W) 23:07:56 435.675
UWE-3 03 May 23:03:46 23:07:57 37° 264° (W) 23:12:14 435.000/436.395/437.385
ANTELSAT 03 May 23:09:03 23:12:36 22° 91° (E) 23:16:10 437.575/2403.000
AIST 1 03 May 23:10:11 23:11:22 11° 85° (E) 23:12:46
ZACube-1 03 May 23:18:05 23:22:07 32° 265° (W) 23:26:13 437.345
Cosmos 2504 03 May 23:19:23 23:25:56 29° 65° (ENE) 23:32:17 435.465 / 435.565
QB50P2 03 May 23:30:14 23:32:56 17° 90° (E) 23:35:46 145.880/145.840
CUBEBUG 1 03 May 23:30:46 23:34:56 49° 72° (ENE) 23:39:08 437.445
HUMSAT D 03 May 23:34:24 23:38:28 42° 262° (W) 23:42:37 437.325/437.525
NANOSAT C BR1 03 May 23:41:20 23:44:34 21° 92° (E) 23:47:53 145.865
DX 1 03 May 23:45:39 23:49:20 26° 265° (W) 23:52:58 434.975-435.025
ESTCUBE 1 03 May 23:48:23 23:52:53 87° 78° (ENE) 23:57:24 437.505/2401.250
POPSAT HIP 1 03 May 23:48:38 23:52:10 25° 94° (E) 23:55:47 437.405
VELOX 1 03 May 23:52:24 23:56:39 47° 261° (W) 00:00:56 145.980
TIGRISAT 03 May 23:53:58 23:58:36 59° 100° (E) 00:03:08 435.000
UNISAT 6 04 May 00:02:29 00:07:12 75° 102° (ESE) 00:11:45 437.425
50 SAT 04 May 00:05:22 00:08:56 29° 265° (W) 00:12:29 437.505
DUCHIFAT 1 04 May 00:11:42 00:15:48 43° 98° (E) 00:19:54 145.980
AISAT 04 May 00:14:37 00:18:25 27° 265° (W) 00:22:11 437.250
SPROUT 04 May 00:15:32 00:19:32 41° 71° (ENE) 00:23:36 437.525
UKube-1 04 May 00:17:10 00:19:30 14° 271° (W) 00:21:39 .
RS-15 04 May 00:17:57 00:28:32 41° 250° (WSW) 00:39:14 29.354- 29.394
POLYITAN 1 04 May 00:22:13 00:26:30 59° 100° (E) 00:30:47 437.675
Cosmos 2491 04 May 00:34:42 00:42:06 28° 297° (WNW) 00:49:19 435.465 / 435.565
QB50P1 04 May 00:35:16 00:39:36 81° 103° (ESE) 00:43:55 145.935-145.965
BEESAT 3 04 May 00:38:15 00:41:38 26° 115° (ESE) 00:45:07 437.485
AIST 1 04 May 00:44:16 00:48:31 65° 281° (W) 00:52:46
TISAT 1 04 May 00:44:59 00:49:09 67° 74° (ENE) 00:53:21 437.305
ANTELSAT 04 May 00:45:10 00:49:35 42° 290° (WNW) 00:53:53 437.575/2403.000
BEESAT 04 May 00:50:48 00:53:35 16° 62° (ENE) 00:56:32 436.000
BEESAT 2 04 May 00:51:34 00:55:08 29° 116° (ESE) 00:58:47 435.950
SWISSCUBE 04 May 00:54:27 00:57:39 19° 63° (ENE) 01:00:58 437.505
BUGSAT 1 04 May 00:58:40 01:02:54 82° 285° (WNW) 01:07:08 437.445
QB50P2 04 May 01:04:58 01:09:09 48° 288° (WNW) 01:13:17 145.880/145.840
CUBEBUG 1 04 May 01:08:53 01:11:39 16° 270° (W) 01:14:15 437.445
GONETS M04 04 May 01:11:50 01:14:40 12° 49° (NE) 01:18:06
Cosmos 2504 04 May 01:12:20 01:19:58 58° 268° (W) 01:27:05 435.465 / 435.565
AIST 2 04 May 01:12:44 01:15:21 16° 112° (ESE) 01:18:08 435.215
NANOSAT C BR1 04 May 01:16:34 01:20:34 37° 290° (WNW) 01:24:31 145.865
POPSAT HIP 1 04 May 01:24:15 01:28:06 32° 291° (WNW) 01:31:54 437.405
TIGRISAT 04 May 01:31:51 01:34:54 17° 297° (WNW) 01:37:46 435.000
UNISAT 6 04 May 01:40:56 01:43:24 14° 299° (WNW) 01:45:40 437.425
DUCHIFAT 1 04 May 01:48:14 01:51:21 19° 295° (WNW) 01:54:22 145.980
SPROUT 04 May 01:52:43 01:55:51 19° 269° (W) 01:58:53 437.525
POLYITAN 1 04 May 01:59:25 02:02:00 15° 297° (WNW) 02:04:25 437.675
ITUPSAT 1 04 May 02:01:26 02:06:11 70° 73° (ENE) 02:10:58 437.325
Oscar 19 04 May 02:11:40 02:16:08 29° 94° (E) 02:20:39 437.125/150
QB50P1 04 May 02:13:23 02:14:55 11° 299° (WNW) 02:16:14 145.935-145.965
BEESAT 3 04 May 02:15:45 02:19:32 35° 313° (NW) 02:23:21 437.485
TISAT 1 04 May 02:24:03 02:25:29 11° 273° (W) 02:26:42 437.305
BEESAT 04 May 02:26:13 02:30:58 67° 259° (WSW) 02:35:45 436.000
BEESAT 2 04 May 02:29:28 02:33:12 32° 314° (NW) 02:36:57 435.950
SWISSCUBE 04 May 02:30:26 02:35:07 56° 259° (W) 02:39:50 437.505
DANDE 04 May 02:42:41 02:49:39 32° 65° (ENE) 02:57:09 436.750
CUSAT 1 04 May 02:44:18 02:51:42 38° 68° (ENE) 02:59:18 437.405
AIST 2 04 May 02:49:21 02:53:34 57° 308° (NW) 02:57:48 435.215
Gurwin Techsat 1B 04 May 02:52:30 02:56:14 20° 90° (E) 03:00:08 435.225
KKS-1 04 May 03:04:00 03:08:21 58° 73° (ENE) 03:12:46 437.445
GONETS M04 04 May 03:05:31 03:14:11 56° 74° (ENE) 03:22:49
ITAMSAT 1 04 May 03:07:04 03:11:30 29° 94° (E) 03:16:01 435.822/435.867
STARS 04 May 03:35:43 03:40:07 80° 75° (ENE) 03:44:35 437.465
AO-7 04 May 03:41:15 03:43:58 12° 82° (E) 03:47:22 29.400- 29.500
ITUPSAT 1 04 May 03:42:09 03:44:40 14° 272° (W) 03:46:56 437.325
Oscar 19 04 May 03:50:47 03:55:35 38° 292° (WNW) 04:00:20 437.125/150
JAS-2 04 May 04:19:26 04:23:29 20° 87° (E) 04:27:29 435.910
DANDE 04 May 04:25:23 04:33:32 70° 263° (W) 04:41:59 436.750
CUSAT 1 04 May 04:26:48 04:34:47 57° 266° (W) 04:42:40 437.405
Gurwin Techsat 1B 04 May 04:31:26 04:36:39 57° 289° (WNW) 04:41:51 435.225
AIST 2 04 May 04:31:33 04:33:07 12° 329° (NNW) 04:34:33 435.215
MOZHAYETS 4 04 May 04:38:44 04:43:04 41° 71° (ENE) 04:47:26
KKS-1 04 May 04:42:53 04:45:27 15° 271° (W) 04:47:50 437.445
ITAMSAT 1 04 May 04:46:20 04:51:07 38° 292° (WNW) 04:55:52 435.822/435.867
GONETS M04 04 May 05:02:57 05:10:43 35° 275° (W) 05:18:15
Cosmos 2499 04 May 05:04:04 05:11:27 53° 75° (ENE) 05:18:25 435.465 / 435.565
STARS 04 May 05:16:28 05:17:15 10° 274° (W) 05:17:46 437.465
HORYU 2 04 May 05:17:09 05:21:41 87° 284° (WNW) 05:26:09 437.375
AUBIESAT-1 04 May 05:25:43 05:28:12 15° 57° (ENE) 05:30:47 437.475
AO-7 04 May 05:30:20 05:38:38 66° 104° (ESE) 05:46:56 29.400- 29.500
O/OREOS (USA 219) 04 May 05:43:52 05:46:47 17° 50° (NE) 05:49:48 437.305
STRAND 1 04 May 05:47:26 05:48:55 11° 57° (ENE) 05:50:39 437.568
PCSat 04 May 05:53:42 05:56:48 16° 106° (ESE) 06:00:08 145.827
JAS-2 04 May 06:03:26 06:09:18 58° 289° (WNW) 06:14:34 435.910
DANDE 04 May 06:11:04 06:15:47 16° 279° (W) 06:20:03 436.750
CUSAT 1 04 May 06:13:26 06:16:10 11° 283° (WNW) 06:18:14 437.405
MOZHAYETS 4 04 May 06:16:52 06:20:29 22° 268° (W) 06:24:01
PRISM 04 May 06:23:19 06:26:34 23° 67° (ENE) 06:29:54 437.425
M-CUBED/EXP-1 PRIME 04 May 06:24:31 06:29:13 54° 67° (ENE) 06:33:47 437.505
CUBESAT XI-V 04 May 06:41:39 06:46:12 62° 74° (ENE) 06:50:46 437.345
HORYU 2 04 May 06:56:32 06:57:41 11° 301° (WNW) 06:58:35 437.375
AUBIESAT-1 04 May 06:57:40 07:02:28 82° 252° (WSW) 07:07:08 437.475
Cosmos 2499 04 May 06:57:54 07:04:12 29° 276° (W) 07:10:03 435.465 / 435.565
CUTE-I 04 May 07:06:40 07:11:23 32° 95° (E) 07:16:11 437.470
